Location: ???? ??
(36.0534°N, 43.5630°E)
Time: 18:40:33
(UTC+00:00)

Meteor 1-21 - Pass Details

Date: 18 September 2019
Orbit: 843 x 889 km, 81.2° (Epoch: 19 October)

Event Time Altitude Azimuth Distance (km) Brightness Sun altitude
Rises 15:40:30 0° 356° (N) 3,409 7.5 -7.1°
Reaches altitude 10° 15:42:58 10° 0° (N) 2,473 6.7 -7.6°
Maximum altitude 15:48:28 57° 79° (E) 995 4.3 -8.7°
Drops below altitude 10° 15:54:00 10° 158° (SSE) 2,480 6.3 -9.8°
Sets 15:56:28 0° 162° (SSE) 3,419 7.1 -10.3°
